$DATE,$TIME,DM0600B,DM0602B,DM0604B,DM0614B,DM0616B,DM0618B,DM0624B,DM0628B,DM0630B,DM0634B,DM0606B,DM0608B,DM0610B
11/07/94,00:00:00,73,87,57,53,0,0,0,61,129,0,8,7,7
11/07/94,00:05:00,68,79,62,54,0,0,0,61,129,0,8,7,7
11/07/94,00:10:00,67,83,52,53,0,0,0,61,128,0,7,7,7
11/07/94,00:15:00,56,86,63,51,0,0,0,61,128,0,7,7,7
11/07/94,00:20:00,65,86,49,51,0,0,0,61,128,0,7,6,7
11/07/94,00:25:00,70,84,52,50,0,0,0,60,128,0,7,6,7
11/07/94,00:30:00,68,82,51,52,0,0,0,61,128,0,7,6,7
11/07/94,00:35:00,64,83,59,46,0,0,0,60,128,0,7,6,8
11/07/94,00:40:00,69,83,57,49,0,0,0,61,128,0,7,6,8
11/07/94,00:45:00,67,84,63,50,0,0,0,60,128,0,7,7,7
11/07/94,00:50:00,52,62,51,49,0,0,0,61,128,0,7,7,7
11/07/94,00:55:00,68,71,39,52,0,0,0,61,128,0,7,6,7
11/07/94,01:00:00,46,64,48,50,0,0,0,61,128,0,8,6,7
11/07/94,01:05:00,54,66,57,53,0,0,0,61,129,0,8,6,7
11/07/94,01:10:00,67,90,50,50,0,0,0,60,128,0,8,6,7
11/07/94,01:15:00,53,75,44,44,0,0,0,60,128,0,7,6,7
11/07/94,01:20:00,56,89,52,50,0,0,0,60,137,0,7,6,7
11/07/94,01:25:00,51,63,51,50,0,0,0,61,129,0,7,6,7
11/07/94,01:30:00,61,68,43,52,0,0,0,61,129,0,7,5,7
11/07/94,01:35:00,66,86,50,51,0,0,0,61,129,0,7,5,7
11/07/94,01:40:00,61,89,55,49,0,0,0,61,128,0,7,6,8
11/07/94,01:45:00,56,77,41,49,0,0,0,61,128,0,7,6,8
11/07/94,01:50:00,61,82,52,51,0,0,0,61,128,0,7,6,7
11/07/94,01:55:00,70,85,55,47,0,0,0,61,128,0,7,6,7
11/07/94,02:00:00,56,64,45,49,0,0,0,61,128,0,7,6,7
11/07/94,02:05:00,67,81,50,47,0,0,0,61,128,0,7,5,7
11/07/94,02:10:00,66,83,46,46,0,0,0,61,128,0,7,5,7
11/07/94,02:15:00,57,72,42,49,0,0,0,61,128,0,7,5,7
11/07/94,02:20:00,64,85,56,50,0,0,0,60,128,0,7,5,7
11/07/94,02:25:00,68,88,48,47,0,0,0,60,128,0,7,5,7
11/07/94,02:30:00,65,85,56,48,0,0,0,60,128,0,7,5,7
11/07/94,02:35:00,54,71,43,51,0,0,0,61,128,0,7,6,7
11/07/94,02:40:00,58,87,53,46,0,0,0,60,128,0,7,6,7
11/07/94,02:45:00,67,85,56,51,0,0,0,61,128,0,6,6,7
11/07/94,02:50:00,51,78,42,51,0,0,0,60,128,0,7,6,7
11/07/94,02:55:00,59,88,41,52,0,0,0,60,128,0,6,6,7
11/07/94,03:00:00,57,75,44,49,0,0,0,60,128,0,6,6,6
11/07/94,03:05:00,56,85,50,50,0,0,0,60,128,0,6,6,6
11/07/94,03:10:00,63,83,55,42,0,0,0,60,126,0,7,6,6
11/07/94,03:15:00,67,78,41,43,0,0,0,61,126,0,7,6,6
11/07/94,03:20:00,66,83,49,47,0,0,0,60,126,0,7,6,6
11/07/94,03:25:00,67,78,60,52,0,0,0,60,126,0,6,6,6
11/07/94,03:30:00,64,83,55,45,0,0,0,60,126,0,6,6,6
11/07/94,03:35:00,60,73,48,50,0,0,0,60,126,0,6,7,5
11/07/94,03:40:00,62,83,44,46,0,0,0,60,126,0,6,7,6
11/07/94,03:45:00,66,87,54,47,0,0,0,60,126,0,6,6,6
11/07/94,03:50:00,62,87,56,47,0,0,0,60,126,0,6,6,6
11/07/94,03:55:00,63,78,45,47,0,0,0,61,128,0,6,6,7
11/07/94,04:00:00,63,78,45,47,0,0,0,61,128,0,6,6,7
11/07/94,04:05:00,59,87,56,44,0,0,0,60,128,0,6,6,7
11/07/94,04:10:00,52,34,43,35,0,0,0,60,51,0,7,6,6
11/07/94,04:15:00,36,79,32,32,0,0,0,60,51,0,7,6,6
11/07/94,04:20:00,49,82,38,38,0,0,0,60,51,0,7,6,7
11/07/94,04:25:00,45,54,37,30,0,0,0,60,42,0,7,6,7
11/07/94,04:30:00,52,80,42,29,0,0,0,60,42,0,6,7,7
11/07/94,04:35:00,52,74,50,37,0,0,0,60,42,0,6,7,7
11/07/94,04:40:00,21,11,23,10,0,0,0,60,42,0,7,7,7
11/07/94,04:45:00,0,0,8,0,0,0,0,61,42,0,7,10,7
11/07/94,04:50:00,0,1,12,0,0,0,0,61,42,0,7,20,7
11/07/94,04:55:00,0,4,34,0,33,35,64,61,35,0,10,15,8
11/07/94,05:00:00,16,17,41,7,0,0,0,61,35,0,9,12,7
11/07/94,05:05:00,12,7,43,8,0,0,0,60,34,0,8,10,7
11/07/94,05:10:00,0,26,0,16,0,0,0,61,35,0,8,9,7
11/07/94,05:15:00,58,107,49,38,0,0,0,60,34,0,7,8,7
11/07/94,05:20:00,31,19,31,22,0,0,0,60,34,0,7,8,7
11/07/94,05:25:00,15,2,18,16,0,0,0,61,34,0,7,7,7
11/07/94,05:30:00,24,10,46,35,0,0,0,61,35,0,7,7,7
11/07/94,05:35:00,13,28,16,12,0,0,0,61,34,0,7,7,7
11/07/94,05:40:00,34,10,15,28,0,0,0,61,35,0,7,9,7
11/07/94,05:45:00,0,3,11,5,23,23,45,62,35,0,13,22,7
11/07/94,05:50:00,0,0,0,0,25,24,48,62,35,0,15,20,7
11/07/94,05:55:00,17,16,20,20,28,28,55,62,35,0,12,14,14
11/07/94,06:00:00,5,3,14,5,26,26,50,62,50,0,10,12,12
11/07/94,06:05:00,6,7,15,2,26,25,50,62,35,0,13,17,10
11/07/94,06:10:00,4,4,10,7,22,21,42,62,35,0,17,24,9
11/07/94,06:15:00,9,13,16,11,18,18,35,62,35,0,13,17,8
11/07/94,06:20:00,9,5,8,5,28,27,53,62,35,0,11,14,8
11/07/94,06:25:00,21,28,33,9,25,24,47,61,39,0,18,23,8
11/07/94,06:30:00,9,8,27,5,24,23,46,61,35,0,14,18,8
11/07/94,06:35:00,4,14,22,12,26,25,50,61,33,0,11,13,7
11/07/94,06:40:00,46,33,28,30,32,31,61,61,33,0,10,11,7
11/07/94,06:45:00,33,49,24,27,0,0,0,60,32,0,9,9,7
11/07/94,06:50:00,36,38,47,18,0,0,0,60,32,0,9,8,7
11/07/94,06:55:00,32,39,32,22,0,0,0,60,32,0,9,8,7
11/07/94,07:00:00,50,47,39,32,0,0,0,60,32,0,8,7,8
11/07/94,07:05:00,33,28,35,24,0,0,0,60,33,0,8,7,8
11/07/94,07:10:00,29,38,48,30,0,0,0,61,33,0,8,6,7
11/07/94,07:15:00,31,48,36,33,0,0,0,60,33,0,8,6,7
11/07/94,07:20:00,23,29,36,28,0,0,0,61,33,0,8,6,7
11/07/94,07:25:00,21,24,24,11,0,0,0,61,33,0,8,7,7
11/07/94,07:30:00,25,28,36,19,0,0,0,61,33,0,9,7,6
11/07/94,07:35:00,8,21,30,13,0,0,0,62,33,0,9,7,6
11/07/94,07:40:00,9,2,26,12,11,11,21,62,33,0,8,16,6
11/07/94,07:45:00,4,0,21,6,13,13,26,62,33,0,8,22,6
11/07/94,07:50:00,37,17,36,22,12,12,24,62,33,0,8,15,6
11/07/94,07:55:00,6,23,16,12,14,13,27,62,33,0,8,12,6
11/07/94,08:00:00,20,16,20,6,20,20,39,61,33,0,8,10,6
11/07/94,08:05:00,41,44,40,30,20,20,39,61,33,0,8,9,6
11/07/94,08:10:00,29,44,45,12,19,19,38,61,33,0,8,8,7
11/07/94,08:15:00,40,30,40,22,18,18,36,61,33,0,8,8,7
11/07/94,08:20:00,38,45,48,25,0,0,0,61,33,0,8,8,7
11/07/94,08:25:00,43,34,38,26,0,0,0,61,32,0,8,7,7
11/07/94,08:30:00,28,16,36,30,0,0,0,61,33,0,8,7,7
11/07/94,08:35:00,33,52,48,31,0,0,0,61,32,0,8,7,7
11/07/94,08:40:00,35,41,45,15,0,0,0,61,32,0,8,8,7
11/07/94,08:45:00,53,47,33,27,0,0,0,61,32,0,8,8,7
11/07/94,08:50:00,40,44,42,27,0,0,0,61,32,0,8,8,7
11/07/94,08:55:00,46,34,38,29,0,0,0,61,36,0,8,7,7
11/07/94,09:00:00,52,31,45,25,0,0,0,61,32,0,8,7,7
11/07/94,09:05:00,29,27,40,30,0,0,0,61,32,0,8,7,7
11/07/94,09:10:00,42,44,47,28,0,0,0,61,33,0,7,7,7
11/07/94,09:15:00,25,43,42,24,0,0,0,61,33,0,8,7,8
11/07/94,09:20:00,19,37,36,18,0,0,0,61,33,0,8,7,7
11/07/94,09:25:00,48,35,36,34,0,0,0,61,33,0,8,6,7
11/07/94,09:30:00,51,37,50,24,0,0,0,60,33,0,8,6,7
11/07/94,09:35:00,47,23,41,11,0,0,0,61,33,0,8,7,7
11/07/94,09:40:00,34,37,36,19,0,0,0,61,33,0,8,7,7
11/07/94,09:45:00,50,40,47,30,0,0,0,61,33,0,8,7,7
11/07/94,09:50:00,50,30,42,26,0,0,0,61,33,0,8,6,7
11/07/94,09:55:00,47,37,44,27,0,0,0,60,32,0,8,6,7
11/07/94,10:00:00,50,36,42,30,0,0,0,60,32,0,7,6,7
11/07/94,10:05:00,55,38,41,34,0,0,0,60,32,0,8,6,6
11/07/94,10:10:00,43,37,44,29,0,0,0,60,32,0,7,6,7
11/07/94,10:15:00,46,37,41,30,0,0,0,60,32,0,8,5,7
11/07/94,10:20:00,48,39,46,29,0,0,0,60,32,0,7,5,7
11/07/94,10:25:00,37,30,45,19,0,0,0,60,32,0,8,5,7
11/07/94,10:30:00,45,39,39,24,0,0,0,60,32,0,8,6,7
11/07/94,10:35:00,39,40,45,28,0,0,0,60,32,0,8,7,7
11/07/94,10:40:00,39,40,42,26,0,0,0,60,32,0,8,7,6
11/07/94,10:45:00,47,35,40,23,0,0,0,60,32,0,8,7,6
11/07/94,10:50:00,48,31,47,28,0,0,0,60,32,0,8,7,6
11/07/94,10:55:00,33,37,37,21,0,0,0,60,32,0,8,7,6
11/07/94,11:00:00,48,40,38,27,0,0,0,60,32,0,8,7,6
11/07/94,11:05:00,49,34,48,23,0,0,0,60,32,0,8,7,6
11/07/94,11:10:00,52,40,46,31,0,0,0,60,32,0,8,7,6
11/07/94,11:15:00,56,34,45,32,0,0,0,60,32,0,7,7,6
11/07/94,11:20:00,54,39,44,26,0,0,0,60,32,0,8,7,7
11/07/94,11:25:00,49,38,38,29,0,0,0,60,32,0,8,7,7
11/07/94,11:30:00,54,38,44,30,0,0,0,60,32,0,7,7,7
11/07/94,11:35:00,51,35,44,29,0,0,0,60,32,0,8,7,7
11/07/94,11:40:00,52,37,44,33,0,0,0,60,32,0,7,7,7
11/07/94,11:45:00,46,41,41,23,0,0,0,60,32,0,8,7,7
11/07/94,11:50:00,44,33,44,26,0,0,0,60,32,0,8,7,7
11/07/94,11:55:00,47,39,42,30,0,0,0,60,30,0,7,6,7
11/07/94,12:00:00,34,35,40,22,0,0,0,60,47,0,8,7,7
11/07/94,12:05:00,40,40,46,28,0,0,0,60,39,0,8,7,7
11/07/94,12:10:00,37,29,41,25,0,0,0,60,30,0,7,7,7
11/07/94,12:15:00,40,36,35,26,0,0,0,60,30,0,8,6,7
11/07/94,12:20:00,45,38,39,30,0,0,0,60,30,0,7,7,7
11/07/94,12:25:00,33,31,36,24,0,0,0,61,30,0,7,7,7
11/07/94,12:30:00,28,26,30,19,0,0,0,61,31,0,8,7,8
11/07/94,12:35:00,19,17,21,12,0,0,0,61,31,0,7,7,8
11/07/94,12:40:00,13,11,16,12,0,0,0,62,31,0,8,8,7
11/07/94,12:45:00,18,14,17,13,3,3,7,62,31,0,13,21,7
11/07/94,12:50:00,9,8,12,8,3,3,7,62,31,0,15,19,7
11/07/94,12:55:00,2,8,12,9,3,3,7,62,31,0,12,14,19
11/07/94,13:00:00,3,10,9,6,3,4,7,62,31,0,22,21,15
11/07/94,13:05:00,1,8,8,8,5,4,10,62,31,0,15,23,12
11/07/94,13:10:00,0,2,7,7,6,4,10,62,31,0,22,16,20
11/07/94,13:15:00,1,8,14,13,6,4,10,62,31,0,17,23,16
11/07/94,13:20:00,1,11,14,10,6,4,10,62,44,0,18,25,12
11/07/94,13:25:00,9,12,18,12,6,4,10,62,31,0,19,17,10
11/07/94,13:30:00,21,19,20,20,6,4,10,62,31,0,14,15,19
11/07/94,13:35:00,8,17,23,18,5,4,10,62,31,0,12,24,13
11/07/94,13:40:00,16,20,25,20,6,4,10,62,31,0,10,18,10
11/07/94,13:45:00,9,21,20,17,6,4,11,62,31,0,15,14,9
11/07/94,13:50:00,4,16,14,17,6,4,11,62,31,0,16,11,8
11/07/94,13:55:00,14,19,24,20,6,4,11,62,31,0,12,16,7
11/07/94,14:00:00,20,21,23,20,7,4,11,61,31,0,11,22,7
11/07/94,14:05:00,20,23,25,18,7,4,12,61,31,0,10,15,7
11/07/94,14:10:00,9,24,23,23,7,4,12,61,50,0,9,12,7
11/07/94,14:15:00,12,21,27,21,7,5,12,61,31,0,9,11,7
11/07/94,14:20:00,6,18,23,19,7,5,13,61,31,0,9,20,6
11/07/94,14:25:00,16,20,23,17,8,5,13,61,31,0,9,20,6
11/07/94,14:30:00,10,16,20,14,8,5,13,61,31,0,8,14,6
11/07/94,14:35:00,14,19,21,18,8,5,14,61,31,0,9,11,7
11/07/94,14:40:00,6,17,18,16,9,5,14,61,31,0,8,19,7
11/07/94,14:45:00,7,11,17,16,9,5,15,62,31,0,8,21,7
11/07/94,14:50:00,3,13,19,15,9,6,15,62,31,0,12,15,7
11/07/94,14:55:00,10,16,19,16,10,6,16,62,31,0,18,12,7
11/07/94,15:00:00,2,16,18,16,10,6,17,62,31,0,13,15,7
11/07/94,15:05:00,3,14,15,16,11,6,17,62,31,0,11,24,7
11/07/94,15:10:00,14,20,22,16,11,7,18,62,31,0,10,17,7
11/07/94,15:15:00,0,8,12,11,11,7,19,62,31,0,20,15,13
11/07/94,15:20:00,13,16,17,10,12,7,19,62,31,0,16,24,15
11/07/94,15:25:00,2,12,18,14,12,7,20,62,31,0,13,19,11
11/07/94,15:30:00,0,9,16,7,13,8,21,62,31,0,11,14,10
11/07/94,15:35:00,1,3,8,4,13,8,21,62,31,0,22,20,13
11/07/94,15:40:00,1,0,4,0,10,6,16,62,31,0,15,25,17
11/07/94,15:45:00,0,0,3,5,16,9,25,62,31,0,26,18,16
11/07/94,15:50:00,0,0,0,0,16,10,26,62,31,0,17,27,19
11/07/94,15:55:00,0,0,0,0,17,10,27,62,31,0,25,27,16
11/07/94,16:00:00,0,0,0,0,18,11,28,62,31,0,22,20,20
11/07/94,16:05:00,0,0,1,0,19,11,29,62,31,0,21,30,21
11/07/94,16:10:00,0,0,0,0,19,11,30,62,31,0,26,23,18
11/07/94,16:15:00,4,1,0,2,20,11,31,62,31,0,19,22,25
11/07/94,16:20:00,0,0,5,0,20,12,31,62,31,0,26,31,16
11/07/94,16:25:00,0,0,0,0,21,12,32,63,31,0,23,21,26
11/07/94,16:30:00,0,1,1,1,21,12,33,63,31,0,21,26,16
11/07/94,16:35:00,0,0,0,1,22,13,34,63,32,0,26,29,24
11/07/94,16:40:00,6,0,1,4,22,13,35,63,31,0,19,19,15
11/07/94,16:45:00,2,0,1,1,23,13,36,62,31,0,21,28,20
11/07/94,16:50:00,0,0,0,0,24,14,37,63,31,0,23,23,16
11/07/94,16:55:00,0,0,0,0,25,14,38,63,31,0,19,21,20
11/07/94,17:00:00,0,0,0,0,25,15,39,63,31,0,26,30,17
11/07/94,17:05:00,0,0,0,0,26,15,40,62,31,0,18,21,19
11/07/94,17:10:00,0,0,0,0,27,16,42,62,31,0,23,24,19
11/07/94,17:15:00,0,0,0,0,28,16,43,62,31,0,17,27,19
11/07/94,17:20:00,0,0,0,0,29,17,44,63,61,0,22,18,16
11/07/94,17:25:00,0,0,0,0,30,17,46,62,31,0,21,25,20
11/07/94,17:30:00,0,0,0,0,31,18,47,62,31,0,20,24,14
11/07/94,17:35:00,0,0,0,0,32,18,49,62,31,0,22,18,23
11/07/94,17:40:00,0,0,0,0,33,19,50,62,31,0,18,28,15
11/07/94,17:45:00,0,0,0,0,34,19,52,62,31,0,21,23,16
11/07/94,17:50:00,0,0,0,0,35,20,53,62,31,0,18,17,17
11/07/94,17:55:00,0,0,0,0,36,21,55,62,31,0,19,26,12
11/07/94,18:00:00,0,0,0,0,37,21,57,62,31,0,19,23,15
11/07/94,18:05:00,0,0,0,0,38,22,58,62,31,0,14,16,17
11/07/94,18:10:00,0,0,0,0,39,23,60,62,31,0,22,25,12
11/07/94,18:15:00,0,0,0,0,40,23,62,62,31,0,16,23,11
11/07/94,18:20:00,0,0,0,0,41,24,63,62,31,0,13,16,13
11/07/94,18:25:00,0,0,0,0,43,24,65,62,31,0,20,22,17
11/07/94,18:30:00,0,0,0,0,44,25,67,61,31,0,15,22,12
11/07/94,18:35:00,0,0,0,0,45,26,68,62,31,0,13,16,10
11/07/94,18:40:00,0,0,0,0,46,26,70,62,31,0,11,17,9
11/07/94,18:45:00,0,0,0,0,47,27,72,62,31,0,11,25,8
11/07/94,18:50:00,0,0,0,0,48,28,74,62,31,0,11,18,8
11/07/94,18:55:00,0,0,0,0,49,28,75,61,31,0,19,14,8
11/07/94,19:00:00,0,0,0,0,51,29,77,62,31,0,15,18,7
11/07/94,19:05:00,0,0,0,0,52,29,79,62,31,0,12,23,7
11/07/94,19:10:00,0,0,0,0,53,30,80,62,31,0,11,16,7
11/07/94,19:15:00,0,0,0,0,54,31,82,62,31,0,10,13,7
11/07/94,19:20:00,0,0,0,0,55,31,84,62,31,0,10,15,7
11/07/94,19:25:00,0,0,0,0,56,32,85,62,31,0,9,23,7
11/07/94,19:30:00,0,0,0,0,57,33,87,61,31,0,10,17,8
11/07/94,19:35:00,0,0,0,0,59,33,89,61,31,0,9,13,8
11/07/94,19:40:00,0,0,0,0,60,34,91,61,31,0,9,11,8
11/07/94,19:45:00,0,0,0,0,61,35,92,61,31,0,9,10,8
11/07/94,19:50:00,0,0,0,0,62,35,94,61,31,0,9,9,8
11/07/94,19:55:00,0,0,0,0,63,36,95,61,31,0,9,19,8
11/07/94,20:00:00,0,0,0,0,64,37,97,61,31,0,10,18,8
11/07/94,20:05:00,0,0,0,0,64,37,98,61,31,0,10,14,8
11/07/94,20:10:00,0,0,0,0,65,38,100,61,30,0,10,11,8
11/07/94,20:15:00,0,0,0,0,67,39,101,61,30,0,10,10,8
11/07/94,20:20:00,0,0,0,0,68,39,103,61,30,0,10,9,8
11/07/94,20:25:00,0,0,0,0,69,40,105,61,31,0,10,8,8
11/07/94,20:30:00,0,0,0,0,71,40,107,61,31,0,9,8,8
11/07/94,20:35:00,0,0,0,0,44,41,82,61,31,0,9,7,9
11/07/94,20:40:00,0,0,0,0,45,42,83,61,31,0,9,8,8
11/07/94,20:45:00,0,0,0,0,46,42,85,61,31,0,9,20,8
11/07/94,20:50:00,0,0,0,0,47,43,87,61,31,0,9,17,8
11/07/94,20:55:00,0,0,0,0,48,43,88,61,31,0,9,13,8
11/07/94,21:00:00,0,0,0,0,48,44,89,61,31,0,10,11,7
11/07/94,21:05:00,0,0,0,0,49,45,91,61,31,0,10,9,7
11/07/94,21:10:00,0,0,0,0,50,45,92,61,31,0,9,9,7
11/07/94,21:15:00,0,0,0,0,51,46,93,61,31,0,9,15,7
11/07/94,21:20:00,0,0,0,0,52,46,94,61,31,0,9,19,7
11/07/94,21:25:00,0,0,0,0,52,47,95,61,31,0,9,14,7
11/07/94,21:30:00,0,0,0,0,53,47,96,61,31,0,9,12,7
11/07/94,21:35:00,0,0,0,0,53,48,97,61,31,0,9,10,7
11/07/94,21:40:00,0,0,0,0,54,48,99,61,31,0,9,9,8
11/07/94,21:45:00,0,0,0,0,55,49,99,61,31,0,9,9,8
11/07/94,21:50:00,0,0,0,0,55,49,101,61,31,0,9,8,8
11/07/94,21:55:00,0,0,0,0,56,50,101,61,31,0,9,8,8
11/07/94,22:00:00,0,0,0,0,56,50,102,61,31,0,9,7,8
11/07/94,22:05:00,0,0,0,0,57,51,103,61,31,0,10,7,8
11/07/94,22:10:00,0,0,0,0,57,51,104,61,31,0,9,7,7
11/07/94,22:15:00,0,0,0,0,58,52,105,61,31,0,9,8,8
11/07/94,22:20:00,0,0,0,0,58,52,106,61,31,0,9,8,7
11/07/94,22:25:00,0,0,0,0,59,52,107,61,31,0,9,8,7
11/07/94,22:30:00,0,0,0,0,59,53,108,61,31,0,9,7,7
11/07/94,22:35:00,0,0,0,0,60,54,110,61,31,0,9,7,7
11/07/94,22:40:00,0,0,0,0,64,57,115,61,31,0,9,7,7
11/07/94,22:45:00,0,0,0,0,60,54,112,61,31,0,9,7,9
11/07/94,22:50:00,0,0,0,0,61,55,112,61,31,0,8,7,8
11/07/94,22:55:00,0,0,0,0,66,60,122,61,31,0,9,7,8
11/07/94,23:00:00,0,0,0,0,0,0,0,61,31,0,9,7,8
11/07/94,23:05:00,0,0,0,0,66,62,113,61,31,0,12,14,8
11/07/94,23:10:00,0,0,0,0,41,37,73,61,31,0,16,22,14
11/07/94,23:15:00,0,0,0,0,42,37,76,61,31,0,12,16,11
11/07/94,23:20:00,0,0,0,0,31,29,58,61,31,0,11,13,10
11/07/94,23:25:00,0,0,0,0,67,61,123,61,31,0,11,15,9
11/07/94,23:30:00,0,0,0,0,76,69,138,61,31,0,10,19,8
11/07/94,23:35:00,0,0,0,0,74,68,136,60,31,0,9,14,8
11/07/94,23:40:00,0,0,0,0,54,51,96,61,31,0,10,13,8
11/07/94,23:45:00,0,0,3,0,49,45,100,61,31,0,15,21,8
11/07/94,23:50:00,0,0,0,0,0,0,0,61,31,0,13,17,7
11/07/94,23:55:00,0,0,0,0,37,34,69,61,31,0,11,13,8
11/08/94,00:00:00,0,0,0,0,30,27,55,62,31,0,11,17,8
